Wind_Speed
3 2 2 1 1 1 2 4 6 6 4 2 4 4 5 6 7 8 9 11 11 12 13 15 16 18 19 21 22 24 25 27 28 29 31 32 33 33 33 34 35 37 39 43 45 48 49 50 50
6 6 7 7 5 4 3 3 2 4 7 8 8 8 9 10 12 12 12 13 13 15 16 18 20 22 24 26 28 30 32 33 35 36 37 38 40 41 40 40 40 40 40 41 43 45 48 50 52
14 14 13 12 11 11 10 10 10 10 10 11 11 11 11 11 11 11 12 14 16 18 20 22 24 27 29 31 33 35 37 38 40 42 43 45 46 47 48 48 48 48 47 46 45 46 47 48 50
16 16 15 15 14 13 12 13 14 14 14 12 10 9 10 11 12 13 14 16 18 21 24 26 29 32 34 36 38 40 42 44 46 48 49 51 52 53 54 54 55 55 55 55 54 52 51 50 50
16 16 16 15 15 16 17 17 15 13 11 10 10 10 11 14 15 16 18 21 23 26 29 32 35 38 40 43 45 48 50 52 54 56 58 59 61 62 62 63 63 62 62 62 61 60 59 57 56
17 18 19 18 18 16 15 12 11 9 8 9 10 12 13 16 18 20 23 26 29 32 34 37 40 42 45 48 50 53 55 58 60 62 65 67 69 70 71 71 71 71 70 69 68 67 66 65 63
19 19 18 17 14 12 11 9 8 7 8 9 11 13 16 19 22 25 28 31 33 36 38 40 42 45 48 51 54 57 60 63 66 68 71 73 75 76 78 78 78 78 77 76 75 74 72 70 69
16 16 14 11 9 8 7 6 7 8 9 11 14 16 20 23 26 28 31 33 35 37 40 43 46 49 52 56 59 62 65 68 71 73 76 78 80 82 84 85 85 85 84 83 82 80 78 76 74
11 10 9 6 5 5 6 7 9 11 13 16 18 21 24 26 28 30 32 35 37 40 43 47 50 53 56 59 62 65 69 72 74 77 80 83 85 88 90 91 92 92 92 92 90 88 86 83 80
5 4 4 4 4 6 9 10 13 15 18 20 23 25 26 28 30 33 35 38 40 43 47 49 52 55 59 62 65 68 72 76 80 84 87 89 92 94 95 96 97 98 99 99 98 97 94 91 87
3 5 6 8 9 11 13 15 17 19 21 23 25 26 28 30 32 35 37 40 43 46 48 51 54 58 61 65 68 73 78 83 87 89 92 95 96 97 97 97 97 97 97 98 99 100 99 98 95
7 10 12 13 14 16 17 19 20 21 23 24 25 27 30 32 35 38 41 43 46 49 52 55 58 62 65 69 73 78 83 87 90 92 95 96 97 96 93 91 88 86 85 86 87 90 92 95 96
12 14 15 17 18 19 19 20 21 22 24 25 27 30 34 36 39 41 43 46 48 51 55 58 62 65 69 73 78 83 88 91 93 95 96 95 92 88 84 80 78 77 76 76 76 77 79 82 86
15 17 17 18 18 18 18 20 21 22 24 27 30 33 36 38 40 42 45 47 50 54 58 62 65 69 73 78 83 88 91 93 95 95 92 89 84 81 78 76 74 72 71 70 71 72 73 73 75
17 17 18 18 17 17 18 19 20 22 25 27 31 34 37 40 42 44 46 49 53 57 61 65 68 72 77 82 86 89 91 93 93 90 86 83 79 77 76 73 68 64 62 61 62 65 68 70 71
16 16 17 17 18 18 18 19 21 23 25 28 31 34 38 42 45 46 49 52 56 60 64 68 71 75 80 84 88 90 92 92 88 85 82 79 77 74 70 65 58 53 51 50 50 53 58 63 67
15 16 17 18 18 18 18 19 21 23 26 29 32 36 40 44 46 48 51 55 59 63 67 70 74 78 82 86 88 91 91 88 84 81 79 77 74 69 63 56 51 48 46 46 46 46 48 52 58
16 17 17 18 18 17 18 20 22 24 27 31 34 38 42 46 48 51 54 57 61 66 69 72 76 80 83 86 89 90 87 83 81 79 77 75 71 64 57 52 50 49 49 49 48 47 47 47 48
16 17 17 17 17 17 18 21 24 26 30 33 37 40 44 48 51 53 56 59 64 68 71 73 77 81 84 86 88 87 83 79 78 77 76 73 67 61 56 53 53 53 54 54 54 52 50 49 48
15 16 16 15 16 18 20 22 27 29 32 36 39 43 46 50 52 55 58 62 66 69 72 74 78 81 85 88 89 86 80 78 77 75 74 71 65 60 57 56 57 58 59 59 59 58 55 52 52
14 15 17 17 19 22 23 24 29 32 35 39 42 45 48 51 54 56 59 63 67 69 72 75 79 83 87 88 87 82 78 76 75 73 71 67 63 60 59 60 61 63 64 64 64 63 60 56 54
15 17 19 21 23 25 28 28 30 34 38 41 43 46 49 52 55 57 61 64 67 70 73 77 81 85 88 87 84 81 78 76 75 74 70 65 61 61 62 64 67 69 70 70 69 67 64 60 56
18 20 22 24 25 27 30 32 33 37 39 42 43 46 49 53 55 57 61 65 68 71 75 78 82 86 87 86 83 79 78 77 76 73 68 62 60 62 66 69 73 74 74 73 72 69 66 62 58
20 22 23 25 27 29 31 33 35 38 39 41 43 46 50 53 55 58 62 66 69 72 76 79 83 86 86 84 81 78 77 76 75 71 65 62 63 67 72 75 75 73 71 69 67 65 63 60 57
22 25 27 28 29 31 32 33 35 36 38 41 44 47 51 53 54 58 63 67 70 73 76 79 83 85 84 82 79 77 77 76 74 70 66 66 69 75 78 75 68 62 57 53 52 52 53 53 52
23 26 29 31 32 31 31 32 34 36 39 42 44 47 50 52 54 59 63 67 71 73 76 79 83 84 83 80 77 76 76 75 73 70 69 72 77 81 78 70 61 53 46 41 36 34 37 41 44
22 26 29 32 34 34 34 35 35 39 41 43 45 47 49 51 54 59 64 68 71 74 76 80 83 83 81 78 75 74 75 74 71 69 71 75 81 82 76 65 55 47 42 36 29 22 21 28 34
24 27 30 34 37 39 37 38 40 41 42 44 45 47 49 51 54 59 64 68 71 74 76 80 82 81 79 76 74 74 74 73 71 70 72 77 81 79 71 59 50 44 39 34 26 15 7 15 23
23 27 30 32 36 39 41 41 44 44 44 45 46 48 49 51 55 60 65 68 71 73 76 79 81 80 76 74 72 72 72 72 71 71 73 78 80 76 66 54 46 40 36 32 28 19 8 5 14
24 27 29 32 35 38 41 44 47 48 48 47 47 48 50 52 55 60 65 68 71 73 76 78 79 78 74 72 71 71 71 71 70 71 73 78 79 73 62 50 41 36 32 30 27 23 14 6 6
Wind_Direction
123 149 167 122 140 231 275 277 282 276 281 3 39 40 26 14 8 1 356 355 350 344 337 332 327 322 317 313 310 307 304 302 299 296 294 292 289 286 282 279 275 271 269 266 264 262 260 259 258
59 63 64 66 64 72 75 49 37 74 69 58 46 36 27 27 27 20 10 2 352 343 335 328 322 317 313 310 307 305 303 301 299 297 295 292 290 288 286 283 280 276 272 268 266 264 262 259 257
79 79 75 77 76 82 85 82 77 69 63 59 55 49 42 35 26 11 357 346 336 328 321 316 313 310 308 306 304 303 301 299 297 295 293 291 289 287 285 283 281 278 276 273 269 266 263 261 258
80 78 75 75 76 76 78 79 80 80 75 65 54 39 24 12 1 349 339 330 323 317 314 312 311 310 309 308 306 304 303 301 299 296 294 292 290 287 285 282 280 278 276 274 272 269 266 263 260
75 76 77 79 81 84 86 85 79 72 60 45 27 11 1 352 344 334 326 321 317 316 316 316 316 316 315 313 311 309 307 305 303 300 298 296 293 291 288 285 283 280 277 274 271 269 267 264 262
84 86 91 94 93 91 86 77 70 59 43 23 6 353 344 336 330 324 321 320 320 321 321 321 320 318 317 315 312 310 308 306 304 302 300 298 296 294 291 289 286 283 280 276 273 270 267 264 262
94 93 93 93 90 82 73 61 48 26 9 354 344 335 328 325 324 323 323 323 323 323 323 321 320 318 317 315 314 312 310 308 306 304 301 299 297 295 293 290 287 285 282 278 275 271 267 264 261
90 92 91 86 78 69 51 33 11 352 336 328 323 321 321 322 323 323 324 324 324 323 322 321 321 320 319 317 316 314 311 309 307 304 301 299 296 294 291 289 286 284 281 278 275 272 268 265 261
86 88 87 73 47 16 356 341 333 324 320 316 315 317 320 322 323 324 325 325 324 323 323 323 322 321 319 317 315 313 311 309 306 303 300 297 295 292 290 287 284 281 278 276 273 270 267 264 261
85 69 53 20 342 323 321 319 317 315 315 315 317 319 322 323 325 325 325 324 324 324 323 322 320 319 318 316 314 312 310 308 306 304 302 299 297 294 291 288 285 282 278 275 273 270 267 264 260
12 348 338 328 323 319 317 315 314 314 316 318 320 321 323 324 325 325 324 324 324 323 321 319 319 318 317 315 314 313 311 310 309 307 305 302 299 296 293 290 287 284 281 277 274 271 267 264 260
324 321 319 318 316 315 315 315 314 315 317 320 321 322 323 325 326 325 325 325 324 322 321 320 319 318 317 316 315 315 314 313 311 309 306 303 301 298 296 293 289 286 282 278 275 271 267 264 260
310 309 310 310 311 312 313 315 316 318 321 323 323 324 326 327 327 326 325 324 322 322 321 320 320 319 318 317 318 317 317 315 313 310 308 305 303 301 298 295 291 287 283 278 274 270 266 262 258
309 309 311 313 314 315 316 317 319 322 325 325 325 326 326 326 325 324 324 323 323 323 323 322 321 320 319 320 320 320 319 317 314 312 310 308 306 304 302 299 295 291 286 281 275 269 264 261 257
313 314 316 317 319 320 321 321 324 326 326 325 324 324 323 324 324 324 324 325 325 324 324 323 322 322 322 323 323 321 319 318 316 314 312 311 310 308 306 303 300 295 290 285 279 272 266 260 256
321 322 322 325 325 324 326 326 327 326 325 323 321 321 322 324 325 325 325 326 325 325 325 324 324 324 325 325 324 322 320 319 318 316 315 314 313 311 308 305 301 297 294 290 286 279 271 263 257
329 328 328 328 326 324 326 326 323 323 322 320 318 319 321 324 325 326 326 326 326 326 326 325 326 327 327 326 324 323 322 321 320 319 317 316 314 312 308 304 300 298 296 295 293 289 282 272 261
332 330 329 326 323 321 322 320 318 319 318 317 317 319 322 324 325 326 326 327 328 328 327 328 328 328 327 326 324 324 324 323 322 320 319 318 315 311 306 301 298 296 295 294 293 292 289 283 273
329 327 326 322 317 317 319 318 317 318 317 316 318 320 322 324 326 327 328 329 329 329 330 330 329 328 327 326 325 325 325 324 323 322 321 319 315 310 305 300 296 295 293 292 290 289 287 285 281
328 324 323 319 316 318 321 322 317 318 317 317 319 321 323 325 327 329 330 331 331 331 331 330 330 329 328 327 327 327 327 326 325 325 323 319 314 309 304 299 296 293 292 290 288 286 283 281 279
330 327 326 325 325 323 323 325 319 319 318 318 320 323 325 327 330 331 332 333 333 332 331 331 331 330 328 328 329 329 329 328 326 326 324 320 314 309 304 300 297 294 291 288 286 282 279 276 274
336 335 332 330 329 328 326 326 321 321 320 321 323 326 328 330 332 333 334 335 334 333 332 332 332 330 330 330 331 331 331 330 329 329 326 323 318 313 309 305 300 296 291 287 283 279 276 272 269
340 337 333 331 330 329 325 326 325 323 322 324 328 330 332 333 334 335 336 336 335 334 334 334 333 332 331 332 333 333 333 332 332 331 329 326 322 317 313 308 303 298 293 288 283 277 272 268 264
341 338 335 333 333 332 331 331 327 326 327 329 332 334 334 334 334 336 338 337 336 335 335 335 334 333 333 334 335 335 334 334 334 333 331 329 326 322 317 312 307 302 297 290 283 276 269 264 260
345 343 342 342 342 340 337 334 329 330 332 334 336 336 335 334 335 338 339 338 337 337 337 336 335 335 335 336 337 337 337 337 337 336 335 333 331 328 324 321 318 313 307 298 287 276 265 257 253
354 351 349 348 348 346 343 338 335 337 337 338 338 336 334 334 336 338 339 339 339 338 338 337 336 337 337 338 339 339 339 340 340 339 339 338 336 335 333 333 331 330 326 318 302 283 263 249 244
1 359 356 352 350 351 351 343 343 343 342 340 339 336 335 335 336 339 340 341 340 340 339 338 338 338 339 340 341 341 342 343 343 343 343 342 342 341 341 341 342 343 344 340 329 302 265 240 233
6 3 2 0 356 355 356 350 350 347 344 342 340 337 336 336 337 340 342 342 341 341 340 340 340 340 341 342 344 344 345 346 347 347 347 347 347 346 345 345 347 351 355 358 358 348 285 227 222
9 8 6 5 3 359 359 355 353 350 347 344 341 339 337 336 338 341 343 343 343 342 342 342 342 342 343 345 346 347 348 350 350 351 351 352 351 350 349 348 351 358 7 16 23 30 44 186 211
10 9 8 8 7 4 2 358 356 355 351 347 343 340 338 337 340 342 344 344 344 344 343 343 344 344 345 346 348 349 351 353 354 354 355 356 356 355 353 351 353 1 13 24 33 40 51 81 187
Height
5863 5864 5866 5868 5869 5868 5868 5870 5870 5871 5872 5872 5872 5871 5871 5871 5871 5872 5870 5867 5866 5865 5864 5863 5862 5860 5859 5857 5855 5854 5852 5850 5849 5847 5845 5843 5841 5839 5838 5836 5835 5834 5834 5834 5834 5835 5836 5837 5838
5865 5867 5869 5869 5869 5868 5870 5870 5871 5873 5873 5872 5872 5872 5871 5870 5870 5869 5868 5867 5865 5864 5863 5861 5860 5858 5856 5854 5852 5850 5848 5846 5843 5841 5839 5837 5834 5832 5831 5829 5827 5826 5825 5824 5824 5824 5824 5826 5827
5868 5869 5870 5870 5869 5871 5872 5872 5873 5873 5873 5872 5872 5872 5871 5871 5870 5869 5867 5866 5864 5863 5861 5859 5856 5854 5852 5850 5847 5844 5842 5839 5837 5834 5831 5828 5826 5823 5821 5820 5818 5817 5816 5814 5815 5814 5814 5814 5815
5870 5871 5871 5870 5870 5872 5873 5873 5873 5873 5873 5872 5872 5871 5870 5870 5869 5867 5866 5864 5862 5860 5858 5855 5852 5849 5846 5843 5840 5837 5834 5831 5828 5825 5821 5818 5815 5812 5810 5808 5806 5805 5804 5803 5803 5803 5803 5803 5803
5872 5872 5871 5871 5872 5873 5873 5874 5874 5873 5873 5872 5871 5870 5869 5868 5866 5865 5863 5861 5859 5856 5853 5850 5846 5843 5839 5835 5831 5828 5824 5820 5816 5812 5809 5805 5801 5798 5795 5793 5791 5790 5788 5788 5788 5788 5789 5790 5791
5874 5873 5873 5874 5874 5875 5875 5875 5874 5874 5873 5872 5871 5869 5868 5866 5864 5863 5860 5858 5855 5851 5848 5844 5840 5836 5832 5827 5823 5818 5814 5809 5804 5799 5794 5789 5785 5781 5777 5774 5772 5771 5770 5769 5769 5770 5771 5773 5775
5876 5875 5875 5875 5876 5876 5876 5875 5875 5874 5873 5872 5870 5868 5866 5865 5862 5860 5857 5853 5850 5846 5842 5838 5834 5830 5825 5820 5814 5808 5803 5797 5791 5785 5779 5773 5767 5762 5758 5754 5751 5749 5747 5747 5747 5749 5751 5753 5756
5879 5879 5877 5877 5877 5877 5877 5875 5874 5874 5872 5871 5869 5867 5865 5862 5859 5856 5853 5849 5845 5841 5836 5832 5827 5821 5815 5810 5803 5797 5791 5785 5778 5771 5764 5757 5750 5743 5737 5733 5729 5725 5723 5722 5722 5723 5726 5730 5733
5882 5882 5879 5879 5879 5878 5877 5876 5874 5873 5871 5870 5867 5865 5862 5859 5856 5853 5849 5845 5840 5835 5829 5824 5818 5812 5806 5800 5793 5786 5778 5771 5764 5756 5748 5739 5730 5722 5714 5708 5703 5698 5695 5694 5693 5695 5698 5703 5707
5884 5883 5882 5882 5881 5880 5878 5877 5875 5873 5870 5868 5865 5862 5859 5856 5852 5848 5844 5839 5834 5828 5823 5817 5811 5804 5797 5790 5782 5774 5765 5756 5746 5736 5725 5715 5705 5695 5687 5679 5672 5667 5664 5662 5662 5663 5667 5673 5679
5885 5884 5883 5882 5881 5879 5878 5876 5873 5871 5868 5866 5863 5859 5856 5852 5848 5844 5839 5833 5828 5822 5816 5810 5803 5795 5786 5778 5769 5759 5749 5738 5726 5714 5701 5689 5677 5667 5657 5649 5641 5635 5630 5628 5628 5629 5633 5638 5646
5886 5884 5883 5882 5880 5878 5876 5873 5871 5868 5866 5863 5860 5856 5852 5848 5843 5838 5832 5827 5821 5814 5808 5800 5791 5783 5773 5764 5754 5743 5731 5719 5706 5693 5679 5665 5652 5640 5629 5619 5612 5605 5600 5596 5594 5595 5598 5603 5610
5885 5883 5882 5880 5878 5875 5873 5870 5868 5865 5862 5859 5856 5851 5847 5842 5837 5832 5827 5821 5815 5808 5799 5790 5781 5771 5761 5750 5738 5725 5711 5697 5683 5668 5654 5639 5626 5614 5603 5593 5585 5578 5572 5568 5566 5565 5566 5570 5576
5884 5881 5879 5877 5875 5873 5871 5868 5866 5863 5860 5856 5851 5846 5842 5837 5833 5827 5822 5815 5808 5799 5790 5780 5770 5759 5747 5734 5720 5706 5691 5675 5659 5643 5628 5613 5600 5589 5578 5569 5562 5554 5548 5543 5540 5539 5540 5542 5546
5881 5879 5877 5875 5873 5871 5869 5867 5864 5860 5856 5852 5848 5843 5837 5833 5828 5822 5815 5808 5799 5790 5779 5769 5758 5745 5732 5717 5702 5687 5671 5655 5638 5621 5605 5591 5578 5567 5555 5546 5538 5531 5525 5520 5516 5515 5515 5517 5520
5879 5877 5875 5872 5869 5867 5867 5864 5861 5857 5853 5849 5844 5839 5833 5828 5822 5815 5808 5799 5790 5780 5769 5757 5745 5731 5716 5701 5685 5667 5650 5633 5616 5600 5585 5571 5558 5547 5536 5526 5518 5512 5506 5501 5497 5494 5492 5493 5495
5877 5875 5872 5870 5867 5865 5864 5862 5858 5854 5850 5845 5840 5835 5829 5823 5816 5808 5800 5791 5781 5770 5758 5746 5732 5717 5702 5685 5667 5649 5630 5613 5596 5581 5566 5553 5540 5528 5518 5510 5502 5496 5491 5485 5481 5477 5473 5472 5472
5875 5872 5870 5868 5865 5863 5861 5859 5855 5851 5846 5841 5836 5830 5824 5817 5809 5801 5792 5782 5771 5760 5747 5733 5718 5703 5688 5670 5652 5632 5613 5595 5579 5564 5549 5536 5523 5511 5502 5494 5487 5481 5476 5470 5465 5461 5458 5455 5453
5874 5872 5869 5867 5864 5862 5860 5856 5851 5847 5842 5837 5831 5825 5818 5811 5803 5793 5783 5773 5761 5749 5735 5720 5706 5691 5674 5656 5638 5620 5602 5583 5566 5549 5533 5519 5506 5495 5486 5478 5472 5465 5459 5454 5449 5445 5442 5439 5436
5874 5871 5869 5867 5863 5860 5857 5853 5848 5843 5838 5832 5826 5820 5813 5804 5795 5785 5775 5764 5752 5738 5723 5709 5694 5677 5658 5640 5621 5602 5585 5568 5551 5534 5517 5502 5489 5478 5469 5462 5454 5447 5441 5435 5429 5425 5423 5422 5419
5874 5871 5868 5865 5862 5858 5854 5851 5844 5839 5833 5826 5820 5813 5806 5797 5787 5777 5766 5755 5742 5727 5713 5698 5681 5663 5644 5624 5606 5589 5572 5555 5539 5523 5506 5489 5475 5463 5453 5444 5435 5427 5420 5413 5408 5404 5402 5403 5401
5873 5870 5866 5862 5859 5855 5850 5847 5841 5834 5827 5820 5814 5807 5799 5789 5779 5769 5758 5746 5732 5718 5702 5686 5668 5648 5629 5609 5591 5574 5558 5542 5525 5508 5491 5475 5460 5448 5436 5426 5414 5403 5394 5387 5381 5378 5377 5379 5382
5871 5868 5864 5860 5856 5852 5846 5841 5836 5828 5820 5814 5808 5800 5791 5782 5772 5761 5750 5737 5723 5708 5691 5674 5655 5635 5615 5596 5578 5561 5544 5526 5510 5493 5477 5462 5448 5434 5419 5405 5390 5376 5365 5356 5351 5349 5350 5353 5358
5870 5867 5863 5858 5853 5848 5841 5835 5829 5821 5815 5809 5802 5793 5784 5775 5765 5754 5742 5729 5714 5698 5681 5663 5644 5624 5605 5586 5567 5550 5533 5515 5498 5481 5465 5451 5436 5419 5400 5381 5363 5346 5333 5324 5318 5318 5321 5326 5333
5868 5865 5860 5855 5850 5844 5837 5830 5824 5817 5810 5803 5796 5787 5778 5768 5758 5747 5735 5721 5705 5688 5671 5653 5634 5615 5595 5576 5558 5540 5521 5503 5484 5467 5451 5436 5420 5401 5378 5356 5336 5319 5305 5294 5289 5288 5292 5301 5311
5867 5862 5857 5852 5847 5842 5834 5827 5822 5814 5806 5797 5790 5781 5772 5762 5752 5741 5728 5713 5697 5680 5663 5644 5625 5606 5587 5568 5550 5531 5512 5493 5474 5456 5438 5421 5401 5379 5355 5334 5315 5300 5286 5276 5269 5267 5270 5280 5291
5866 5861 5856 5850 5843 5838 5831 5824 5817 5809 5801 5793 5785 5776 5766 5756 5746 5734 5720 5705 5689 5672 5654 5636 5617 5598 5579 5561 5542 5523 5505 5485 5466 5448 5429 5409 5386 5363 5339 5320 5305 5292 5279 5268 5259 5255 5258 5267 5278
5864 5859 5854 5847 5839 5833 5829 5820 5814 5805 5797 5789 5780 5770 5760 5750 5739 5727 5713 5697 5681 5664 5647 5628 5609 5590 5571 5553 5535 5517 5498 5479 5460 5442 5422 5401 5377 5352 5331 5314 5302 5290 5279 5267 5259 5254 5256 5263 5272
5863 5858 5852 5846 5839 5831 5825 5821 5812 5802 5793 5784 5775 5765 5755 5744 5733 5720 5706 5690 5674 5657 5640 5621 5602 5583 5565 5547 5529 5511 5493 5474 5455 5436 5417 5395 5371 5348 5327 5312 5301 5292 5282 5272 5265 5261 5261 5265 5271
5861 5856 5851 5846 5839 5831 5824 5820 5809 5800 5789 5780 5770 5760 5749 5738 5726 5714 5700 5684 5668 5651 5633 5615 5597 5578 5560 5543 5525 5507 5489 5471 5452 5434 5414 5392 5369 5346 5327 5312 5303 5295 5287 5280 5274 5270 5269 5271 5274